[[{"header":{"parameterUnit":"m.s-1","parameterCategory":1,"la1":30.2991,"la2":30.254,"lo1":-89.0895,"lo2":-89.0444,"dy":0.0017,"dx":0.0017,"nx":28,"ny":28,"refTime":"2024-05-09T09:00:00:Z","depth":0,"parameterNumber":2,"parameterNumberName":"U-component_of_WINDS"},"data":[0,0,0,0,0,0,0,0,0,0,0,0,0,0,0,0,0,0,0,0,0,0,0,0,0,0,0,0,0,0,0,0,0,0,0,0,0,0,0,0,0,0,0,0,0,0,0,0,0,0,0,0,0,0,0,0,0,0,2.7618,2.7619,0,2.7784,2.7786,2.7788,2.7797,2.7795,2.7794,2.7792,2.7966,2.7972,2.7979,0,0,0,0,0,0,0,0,0,0,0,0,0,2.7311,2.7317,2.7617,2.7619,2.7621,2.7784,2.7786,2.7788,2.7798,2.7795,2.7793,2.7791,2.7964,2.7972,2.7979,0,0,0,0,0,0,0,0,0,0,0,0,0,2.7458,2.7319,2.7617,2.7646,2.765,2.7783,2.7786,2.7789,2.7798,2.7795,2.7792,2.779,2.7962,2.7971,2.798,2.8098,0,0,2.801,2.8014,0,0,0,0,0,0,0,0,2.7449,2.7469,2.7639,2.7644,2.7649,2.7767,2.7742,2.7892,2.7799,2.7742,2.7792,2.7788,2.7902,2.7917,2.7954,2.8106,2.8113,2.8011,2.8017,2.8021,2.8024,0,0,0,0,0,0,0,2.7439,2.7462,2.7683,2.7642,2.7648,2.7651,2.7669,2.7771,2.7837,2.7747,2.7748,2.7767,2.7905,2.7945,2.7959,2.8116,2.8011,2.8019,2.8025,2.8029,2.8371,2.8374,0,0,0,0,0,0,2.7423,2.7453,2.7678,2.7688,2.754,2.7659,2.7679,2.7732,2.7835,2.7848,2.777,2.7767,2.793,2.7947,2.7965,2.8108,2.8021,2.803,2.8035,2.8368,2.8372,2.8375,0,0,0,0,0,0,2.7416,2.7443,2.7671,2.7571,2.7601,2.7668,2.7727,2.7737,2.7777,2.7852,2.7865,2.7799,2.7929,2.7951,2.8064,2.8114,2.8034,2.8043,2.8364,2.8369,2.8374,2.8396,0,0,0,0,0,0,2.7408,2.7441,2.7485,2.7572,2.7606,2.7767,2.773,2.7742,2.7793,2.7792,2.7883,2.7895,2.7928,2.805,2.8074,2.8126,2.805,2.836,2.8366,2.8372,2.8391,2.8401,2.8409,0,0,0,0,0,2.7397,2.7485,2.7487,2.7514,2.7662,2.777,2.7789,2.7824,2.7797,2.7843,2.7891,2.7893,2.8105,2.8061,2.8088,2.8144,2.8357,2.8364,2.8372,2.8387,2.8399,2.8409,0,0,0,0,0,0,2.7404,2.7497,2.75,2.762,2.7686,2.7771,2.783,2.7836,2.7912,2.7908,2.7949,2.7969,2.8081,2.8124,2.8073,2.8263,2.8228,2.8241,2.823,2.8243,2.8252,2.8239,2.8058,0,0,0,0,0,2.7419,2.7497,2.7575,2.7673,2.7706,2.7762,2.781,2.7831,2.7902,2.7931,2.7988,2.8058,2.814,2.8194,2.8274,2.8397,2.8417,2.845,2.8459,2.8466,2.8477,2.8545,2.856,2.84,2.84,2.84,0,0,2.7452,2.7513,2.756,2.7676,2.773,2.7811,2.7786,2.7873,2.7933,2.7945,2.8054,2.8098,2.8179,2.8297,2.8353,2.8337,2.8525,2.8475,2.8481,2.8488,2.8554,2.8569,2.8582,2.8405,2.8404,2.8403,0,0,2.7553,2.7607,2.7694,2.7748,2.783,2.7866,2.7887,2.7971,2.8,2.811,2.812,2.8194,2.8335,2.8392,2.844,2.8562,2.8566,2.8587,2.8636,2.8701,2.8714,2.8725,2.8768,2.8783,2.8598,2.8598,2.8598,0,2.7584,2.7704,2.7738,2.7824,2.7875,2.7888,2.7977,2.8028,2.8133,2.8168,2.8149,2.8326,2.8382,2.8514,2.8543,2.8582,2.8607,2.8577,2.8709,2.8721,2.8732,2.8773,2.8789,2.86,2.86,2.86,2.8599,0,2.7738,2.7822,2.7882,2.7981,2.8039,2.8126,2.8174,2.8229,2.8245,2.8283,2.8395,2.8463,2.8556,2.8589,2.8606,2.8723,2.8711,2.87,2.8666,2.8749,2.8788,2.8804,2.8603,2.8602,2.8602,2.8601,0,0,2.7848,2.7963,2.7985,2.8029,2.812,2.8186,2.8274,2.8364,2.8411,2.8483,2.8557,2.8677,2.8667,2.8721,2.8745,2.8802,2.8894,2.8785,2.8787,2.8802,2.9027,2.9033,2.9051,2.8897,2.89,2.8903,2.9019,0,2.7958,2.8113,2.8146,2.828,2.8358,2.8371,2.8448,2.8512,2.8551,2.8624,2.8667,2.875,2.8732,2.8764,2.8822,2.887,2.8939,2.8863,2.8968,2.8971,2.8946,2.9072,2.908,2.9186,2.9035,2.9038,2.904,0,2.8108,2.8181,2.8322,2.8402,2.8436,2.8504,2.8589,2.8658,2.8732,2.8756,2.8816,2.8833,2.8926,2.8887,2.9016,2.8963,2.9009,2.9039,2.9044,2.9054,2.901,2.9085,2.9221,2.9237,2.9065,2.9063,2.9061,0,2.8172,2.8307,2.8408,2.8446,2.8542,2.859,2.8632,2.8703,2.8755,2.883,2.8864,2.8949,2.8996,2.9062,2.9102,2.9071,2.9228,2.9193,2.9251,2.925,2.9283,2.928,2.9427,2.9313,2.9313,2.9313,2.9313,0,2.8292,2.8378,2.8439,2.8501,2.8598,2.8635,2.8731,2.8773,2.8836,2.8908,2.8926,2.8993,2.9042,2.9117,2.9149,2.925,2.9272,2.9294,2.9302,2.9292,2.9289,2.9322,2.9315,2.9317,2.9316,2.9315,2.9315,0,2.838,2.8425,2.8536,2.8617,2.864,2.8708,2.8778,2.884,2.8878,2.8969,2.8992,2.9054,2.9142,2.9189,2.93,2.9322,2.9435,2.9439,2.941,2.9413,2.9467,2.9461,2.964,2.9665,2.9535,2.9536,2.9537,0,2.8453,2.8519,2.8607,2.8655,2.8698,2.8776,2.8829,2.8868,2.8923,2.9011,2.9063,2.9152,2.9225,2.9366,2.9421,2.9506,2.9512,2.9568,2.9525,2.9513,2.9512,2.9507,2.9513,2.9576,2.9577,2.9578,2.9579,0,2.8577,2.8595,2.8669,2.8751,2.8813,2.888,2.8946,2.8985,2.9036,2.9096,2.9186,2.9243,2.9355,2.9443,2.9533,2.9578,2.9587,2.9592,2.961,2.9601,2.958,2.9591,2.943,2.9588,2.9587,2.9586,2.9586,2.9585,2.866,2.8719,2.8789,2.8871,2.8924,2.8986,2.9047,2.9093,2.9168,2.9261,2.9281,2.9376,2.9448,2.9568,2.9616,2.9692,2.968,2.9706,2.9713,2.9718,2.972,2.9569,2.9708,2.9708,2.9708,2.9708,2.9708,0,2.8784,2.883,2.8904,2.8995,2.906,2.9061,2.9135,2.9189,2.9271,2.9338,2.9409,2.9512,2.9597,2.9659,2.9746,2.9795,2.9801,2.9816,2.9813,2.9823,2.9726,2.9701,2.981,2.981,2.981,2.981,2.981,2.9809,2.8856,2.8955,2.8982,2.9108,2.9154,2.9246,2.9287,2.9344,2.9397,2.951,2.958,2.9619,2.9684,2.9776,2.9855,2.9871,2.9902,2.9917,2.9933,2.9841,2.983,2.982,2.9797,2.9924,2.9924,3.0024,3.0025,3.0026]},{"header":{"parameterUnit":"m.s-1","parameterCategory":1,"la1":30.2991,"la2":30.254,"lo1":-89.0895,"lo2":-89.0444,"dy":0.0017,"dx":0.0017,"nx":28,"ny":28,"refTime":"2024-05-09T09:00:00:Z","depth":0,"parameterNumber":3,"parameterNumberName":"V-component_of_WINDS"},"data":[0,0,0,0,0,0,0,0,0,0,0,0,0,0,0,0,0,0,0,0,0,0,0,0,0,0,0,0,0,0,0,0,0,0,0,0,0,0,0,0,0,0,0,0,0,0,0,0,0,0,0,0,0,0,0,0,0,0,2.4632,2.4634,0,2.4864,2.4866,2.4869,2.4961,2.496,2.496,2.4959,2.5192,2.5199,2.5205,0,0,0,0,0,0,0,0,0,0,0,0,0,2.4261,2.4267,2.4631,2.4634,2.4637,2.4863,2.4867,2.487,2.4961,2.496,2.496,2.4959,2.519,2.5198,2.5206,0,0,0,0,0,0,0,0,0,0,0,0,0,2.445,2.4269,2.4631,2.471,2.472,2.4863,2.4867,2.4871,2.4961,2.496,2.4959,2.4959,2.5187,2.5197,2.5207,2.5287,0,0,2.5238,2.5243,0,0,0,0,0,0,0,0,2.4439,2.4463,2.4696,2.4705,2.4716,2.4883,2.4821,2.501,2.4961,2.4869,2.4959,2.4958,2.509,2.5108,2.5153,2.5298,2.5308,2.5239,2.5245,2.525,2.5252,0,0,0,0,0,0,0,2.4426,2.4454,2.4723,2.4699,2.4711,2.4732,2.4758,2.4858,2.4981,2.4877,2.4884,2.4911,2.5095,2.5143,2.5159,2.5312,2.5239,2.5248,2.5254,2.5258,2.5532,2.5533,0,0,0,0,0,0,2.44,2.4442,2.4716,2.473,2.4573,2.4739,2.4768,2.483,2.4981,2.5003,2.4911,2.4914,2.5126,2.5147,2.5168,2.5271,2.5249,2.5259,2.5265,2.5531,2.5532,2.5533,0,0,0,0,0,0,2.4392,2.4424,2.4706,2.4588,2.4626,2.4747,2.4815,2.4835,2.4883,2.5007,2.5028,2.4938,2.5126,2.5153,2.5257,2.528,2.5264,2.5273,2.5529,2.5531,2.5533,2.5477,0,0,0,0,0,0,2.4381,2.442,2.4454,2.4589,2.4632,2.4793,2.4816,2.484,2.4901,2.4907,2.5038,2.5058,2.5128,2.5241,2.5267,2.5294,2.5281,2.5528,2.553,2.5532,2.5478,2.5477,2.5476,0,0,0,0,0,2.4368,2.4428,2.4455,2.4488,2.4676,2.4795,2.4819,2.4899,2.4903,2.4936,2.5015,2.5054,2.5273,2.5251,2.5281,2.5311,2.5527,2.5529,2.5532,2.5478,2.5477,2.5476,0,0,0,0,0,0,2.4292,2.4448,2.4479,2.4586,2.4676,2.481,2.4855,2.4896,2.4987,2.4988,2.5082,2.5111,2.5206,2.5269,2.5241,2.5395,2.5402,2.5411,2.5351,2.5351,2.5351,2.5334,2.5289,0,0,0,0,0,2.4288,2.4373,2.4503,2.4584,2.4628,2.4733,2.4788,2.4842,2.4939,2.4977,2.5064,2.5155,2.5244,2.5301,2.539,2.5486,2.5515,2.5522,2.5521,2.552,2.5526,2.558,2.5584,2.5542,2.5542,2.5542,0,0,2.428,2.4375,2.4423,2.4572,2.4648,2.4732,2.4765,2.4853,2.4915,2.499,2.5094,2.5159,2.5267,2.5367,2.5415,2.5422,2.5544,2.5523,2.5521,2.5529,2.5584,2.5587,2.5591,2.5544,2.5544,2.5543,0,0,2.4309,2.439,2.4466,2.4542,2.4658,2.4727,2.4745,2.4872,2.492,2.5025,2.5082,2.5156,2.5309,2.5383,2.544,2.5494,2.5533,2.552,2.5517,2.5569,2.5572,2.5576,2.5594,2.56,2.5526,2.5526,2.5526,0,2.4284,2.4415,2.45,2.4584,2.4647,2.4719,2.4795,2.4864,2.5002,2.5043,2.5049,2.5241,2.5318,2.5436,2.5449,2.5493,2.5515,2.5506,2.5565,2.5569,2.5574,2.5592,2.5599,2.5524,2.5524,2.5524,2.5524,0,2.4378,2.4467,2.4514,2.4647,2.4715,2.4795,2.489,2.4948,2.4994,2.5062,2.5166,2.5262,2.5371,2.5402,2.5449,2.5526,2.5526,2.5547,2.5557,2.5574,2.5593,2.5601,2.552,2.5521,2.5522,2.5522,0,0,2.4368,2.4545,2.4561,2.4622,2.4754,2.4823,2.4905,2.5013,2.506,2.5152,2.5222,2.5347,2.5367,2.5432,2.5487,2.5532,2.5567,2.5548,2.5552,2.5548,2.5657,2.564,2.5647,2.5593,2.5595,2.5597,2.5647,0,2.4414,2.4566,2.4644,2.4761,2.4843,2.4912,2.4983,2.507,2.5134,2.5212,2.5282,2.537,2.539,2.5429,2.5477,2.5553,2.559,2.555,2.5658,2.5661,2.563,2.5657,2.5641,2.5684,2.5655,2.5657,2.5658,0,2.4489,2.4581,2.4707,2.4828,2.4866,2.4928,2.5032,2.5106,2.5205,2.5249,2.532,2.5374,2.546,2.5462,2.5581,2.5552,2.56,2.5643,2.5647,2.566,2.5661,2.5671,2.57,2.5707,2.567,2.5669,2.5668,0,2.4468,2.4624,2.4719,2.4769,2.4912,2.4954,2.5016,2.5114,2.5173,2.5263,2.5302,2.54,2.5453,2.5527,2.5604,2.5599,2.5715,2.5724,2.5752,2.575,2.5775,2.5772,2.5812,2.5805,2.5805,2.5804,2.5804,0,2.4512,2.4587,2.4712,2.477,2.4855,2.4941,2.5022,2.5088,2.5174,2.5245,2.5309,2.5374,2.5472,2.5549,2.5609,2.5698,2.5721,2.5758,2.5773,2.5753,2.5748,2.5786,2.5785,2.5806,2.5806,2.5806,2.5805,0,2.4504,2.4591,2.4699,2.4826,2.4859,2.4916,2.5023,2.5081,2.5148,2.5237,2.5262,2.5367,2.546,2.5544,2.5667,2.5708,2.5798,2.5817,2.5765,2.5773,2.5797,2.5793,2.5863,2.5876,2.5859,2.5859,2.5859,0,2.4527,2.4586,2.4718,2.4771,2.4832,2.4916,2.4977,2.5063,2.5123,2.5239,2.5283,2.538,2.5464,2.5608,2.5694,2.5788,2.581,2.5827,2.5824,2.5801,2.581,2.5805,2.5811,2.5826,2.5826,2.5826,2.5826,0,2.4557,2.4597,2.4683,2.4784,2.4854,2.4937,2.5022,2.5061,2.5163,2.5226,2.5323,2.5387,2.5513,2.5609,2.5712,2.5773,2.5816,2.5826,2.5838,2.5817,2.5785,2.5802,2.5762,2.5824,2.5824,2.5825,2.5825,2.5825,2.4566,2.4621,2.4722,2.4815,2.4888,2.4965,2.5026,2.51,2.5183,2.5293,2.5338,2.5435,2.553,2.5674,2.5734,2.581,2.5819,2.5835,2.584,2.5843,2.5838,2.5772,2.5829,2.5829,2.5829,2.5829,2.5829,0,2.4599,2.4668,2.4752,2.4869,2.4941,2.4976,2.5071,2.5129,2.5215,2.53,2.5381,2.549,2.5583,2.5675,2.5772,2.5815,2.5837,2.5837,2.5835,2.5848,2.5825,2.5806,2.5818,2.5818,2.5818,2.5818,2.5818,2.5818,2.4625,2.472,2.4771,2.4901,2.4969,2.5066,2.5117,2.5188,2.5257,2.5377,2.5454,2.5514,2.5602,2.5705,2.5791,2.5815,2.5848,2.5843,2.5872,2.585,2.585,2.585,2.5832,2.5849,2.5849,2.5889,2.589,2.589]}]]